Regional Weather Roundup
Issued by NWS

Home | Current Version | Previous Version | Graphics & Text | Print | Product List | Glossary On
Versions: 1 2 3 4 5 6 7 8 9 10 11 12 13 14 15 16 17 18 19 20 21 22 23 24 25 26 27 28 29 30 31 32 33 34 35 36 37 38 39 40 41 42 43 44 45 46 47 48 49 50
000
ASUS44 KMEG 280710
RWRTN
TENNESSEE HOURLY STATE WEATHER ROUNDUP
NATIONAL WEATHER SERVICE MEMPHIS TN
100 AM CST TUE FEB 28 2017

TNZ002-004-019-021-049-052-054-088>092-280800-
WEST TENNESSEE

CITY           SKY/WX    TMP DP  RH WIND       PRES   REMARKS
MEMPHIS INTL   CLOUDY    58  54  86 S16G23    30.05R
NWS MEMPHIS      N/A     57 N/A N/A MISG        N/A
JACKSON        PTCLDY    56  53  90 SE12G17   30.08S
UNION CITY     MOCLDY    55  55 100 CALM      30.04F
PARIS          CLOUDY    52  48  87 S10       30.07F
HUNTINGDON     CLOUDY    55  52  88 S13       30.08R
$$

TNZ008-025-027-028-033-062-065-066-280800-
NORTH MIDDLE TENNESSEE

CITY           SKY/WX    TMP DP  RH WIND       PRES   REMARKS
NASHVILLE      CLOUDY    53  48  83 S10       30.16S
PORTLAND       PTCLDY    50  46  87 S10G17    30.13F
CLARKSVILLE    MOCLDY    52  46  80 S8        30.10F
SMYRNA         CLOUDY    53  49  86 S8        30.17F
COOKEVILLE     CLEAR     52  46  82 S9G16     30.18S
GALLATIN       MOCLDY    48  45  87 CALM      30.19S
CROSSVILLE     PTCLDY    49  44  83 S7        30.22F
$$

TNZ061-075-076-078-094-096-097-280800-
SOUTH MIDDLE TENNESSEE

CITY           SKY/WX    TMP DP  RH WIND       PRES   REMARKS
FAYETTEVILLE   MOCLDY    52  50  93 S12       30.18F
TULLAHOMA      PTCLDY    48  46  93 SE8       30.19F
WINCHESTER     PTCLDY    52  46  82 S9        30.20S
MCMINNVILLE    CLEAR     48  48 100 CALM      30.19S
COLUMBIA       CLOUDY   N/A N/A N/A S9        30.13R
SHELBYVILLE    CLOUDY    52  50  93 SE7       30.19F
$$

TNZ017-018-042-046-047-280800-
NORTHEAST TENNESSEE

CITY           SKY/WX    TMP DP  RH WIND       PRES   REMARKS
TRI CITIES     PTCLDY    41  35  79 CALM      30.28F
ELIZABETHTON   CLEAR     45  37  76 NE5       30.29S
$$

TNZ012-013-036-069-073-074-280800-
CENTRAL EAST TENNESSEE

CITY           SKY/WX    TMP DP  RH WIND       PRES   REMARKS
KNOXVILLE      PTCLDY    41  37  86 CALM      30.25F
OAK RIDGE      CLEAR     43  39  86 CALM      30.28S
DOWNTOWN KNOXV CLEAR     39  37  93 SE3       30.27F
GATLINBURG     CLEAR     36  32  87 CALM      30.27S
MORRISTOWN     CLEAR     43  34  70 NE3       30.25S
JACKSBORO      CLEAR     36  36 100 CALM      30.28F
$$

TNZ083-085-099-280800-
SOUTHEAST TENNESSEE

CITY           SKY/WX    TMP DP  RH WIND       PRES   REMARKS
CHATTANOOGA    CLOUDY    47  44  90 CALM      30.27S
$$

SKY/WX REPORTED AS FAIR MEANS FEW OR NO CLOUDS BELOW
12 THOUSAND FEET.




USA.gov is the U.S. government's official web portal to all federal, state and local government web resources and services.